www.pogodaiklimat.ru

Погода и климат >> Архив погоды >> Россия >> Оренбургская область >> Оренбург


АРХИВ ПОГОДЫ в Оренбурге

Время (UTC), дата Ветер
(напр.,м/с)
 
Видим.   Явления Облачность Т
(С)
Тd
(С)
f
(%)
Тe
(С)
Тes
(С)
Комфортность P
(гПа)
Po
(гПа)
Тmin
(С)
Tmax
(С)
R
(мм)
R24
(мм)
S
(см)
18 14.07 З 1 20 км гроза без осадков {ливн. осадки} 9/9 600 м
[Cb calv]
+21.1 +18.5 85 +25 +25 комфорт 1004.0 990.5
21 14.07 С 7
{11}
20 км в посл. час гроза {ливн. осадки} 8/8 600 м
[Cb calv]
+19.1 +17.8 92 +20 +20 тепло 999.2 985.7
00 15.07 З 7-12
{12}
4000 м ливневой дождь 9/9 600 м
[Cb calv]
+17.5 +16.0 91 +17 +17 по сезону 997.4 983.8
03 15.07 З 6
{13}
20 км {ливн. осадки} 9/9 600 м
[Cb cap]
+17.8 +16.2 90 +17 +17 прохладно 996.9 983.4 +17.5 7
06 15.07 З 7 10 км {ливн. осадки} 10/10 600 м
[Cb cap]
+16.9 +15.0 89 +16 +16 очень
холодно
999.8 986.1
09 15.07 З 9-15
{16}
20 км {ливн. осадки} 9/9 600 м
[Cb cap]
+19.7 +13.9 69 +21 +21 комфорт 1003.5 989.9
12 15.07 З 11-17
{20}
20 км {ливн. осадки} 6/5 600 м
[Cb calv Ci fib]
+22.3 +10.8 48 +24 +24 комфорт 1005.4 991.9
15 15.07 З 6
{17}
20 км 1/1 1000 м
[Cu hum]
+21.3 +11.0 52 +23 +23 комфорт 1007.6 994.1 +22.9 0.0
18 15.07 штиль 0 20 км 3/0
[Ac trans]
+17.3 +11.6 69 +17 +17 прохладно 1009.3 995.5
21 15.07 Ю 2 20 км ясно +15.0 +12.0 82 +15 +15 прохладно 1010.2 996.3
00 16.07 Ю 2 20 км 1/0
[Ci fib]
+13.2 +11.3 88 +12 +12 прохладно 1011.2 997.2
03 16.07 ЮЗ 3 20 км ясно +17.3 +14.1 81 +17 +20 прохладно 1012.5 998.7 +12.2
06 16.07 СЗ 3 20 км 3/3 600 м
[Cu med, cong]
+23.4 +13.4 53 +27 +34 душно 1012.7 999.2
09 16.07 СЗ 4 20 км 6/0
[Ci fib]
+26.0 +10.0 37 +27 +36 жарко 1012.5 999.1
12 16.07 С 3 20 км 10/0
[Ci fib]
+26.5 +8.3 32 +27 +32 жарко 1012.2 998.8
15 16.07 С 2 20 км 8/3 1000 м
[Sc Ci fib]
+25.8 +8.4 33 +26 +26 жарко 1012.4 999.0 +27.1
18 16.07 СВ 2 20 км 8/0
[Ac lent Ci fib]
+21.8 +10.0 47 +23 +23 комфорт 1012.7 999.1
21 16.07 В 2 20 км 8/0
[Ac lent]
+19.4 +11.6 61 +21 +21 комфорт 1013.2 999.5
00 17.07 штиль 0 20 км 10/0
[Ac As]
+18.5 +13.1 71 +19 +19 тепло 1013.6 999.8
03 17.07 В 3 20 км 10/0
[Ac As]
+18.9 +12.4 66 +20 +21 по сезону 1013.3 999.6 +17.5
06 17.07 В 2 20 км 10/8 1000 м
[Sc Ac trans]
+23.3 +12.9 52 +26 +27 жарко 1012.7 999.2
09 17.07 С 3 20 км {дождь} 10/8 1000 м
[Sc Ac As]
+25.2 +14.7 52 +28 +29 жарко 1012.5 999.1
12 17.07 С 2 10 км слаб. дождь 10/9 1000 м
[Sc As op]
+22.1 +15.8 67 +26 +26 душно 1013.0 999.4
15 17.07 СВ 4 20 км {дождь} 10/8 1000 м
[Sc Ac trans]
+20.2 +15.7 75 +23 +23 комфорт 1010.6 997.0 +26.1 2
18 17.07 В 3 20 км {дождь} 8/8 1000 м
[Sc Ac trans]
+19.1 +15.3 79 +21 +21 комфорт 1010.1 996.4
21 17.07 СВ 3 20 км 6/5 1000 м
[Sc Ac trans]
+18.0 +14.9 82 +18 +18 по сезону 1008.8 995.1
00 18.07 В 3 20 км 4/3 1000 м
[Sc Ac trans Ci fib]
+16.1 +14.0 87 +16 +16 по сезону 1007.7 993.9
03 18.07 В 4 20 км 4/0
[Ac trans]
+20.0 +14.4 70 +22 +24 комфорт 1006.7 993.1 +16.1
06 18.07 ЮВ 3 20 км 9/4 1000 м
[Sc diur, vesp Ac trans Ci fib]
+29.3 +10.0 30 +29 +33 жарко 1005.6 992.4
09 18.07 В 3
{11}
20 км гроза без осадков {ливн. осадки} 9/9 600 м
[Cb cap]
+25.8 +17.3 59 +30 +31 душно 1005.5 992.2
12 18.07 В 5 20 км {гроза, ливн. осадки} 9/6 600 м
[Cb cap Ac trans Ci fib]
+29.7 +17.6 48 +34 +35 очень
душно
1004.4 991.3
15 18.07 З 2 20 км 8/5 600 м
[Cb calv Ci fib]
+28.8 +15.7 45 +32 +32 душно 1005.2 992.0 +34.0 12
18 18.07 Ю 2 20 км 6/6 1000 м
[Sc]
+25.1 +14.9 53 +28 +28 жарко 1006.2 992.8
21 18.07 Ю 3 20 км 4/0
[Ac trans]
+21.9 +15.4 67 +26 +26 душно 1006.7 993.2
00 19.07 ЮВ 1 20 км 4/4 1000 м
[Sc]
+19.3 +16.7 85 +22 +22 комфорт 1008.1 994.5
03 19.07 ЮВ 1 20 км 9/8 1000 м
[Sc diur, vesp Ac trans]
+22.5 +16.8 70 +27 +28 душно 1008.3 994.8 +18.7
06 19.07 СЗ 2 20 км 8/6 600 м
[Cb cap Ac trans Ci fib]
+27.9 +19.6 61 +34 +38 очень
душно
1008.2 994.9
09 19.07 СВ 3 20 км слаб. ливневой дождь 10/0 600 м
[]
+29.0 +17.8 51 +33 +40 очень
душно
1006.8 993.6
12 19.07 СВ 4 20 км {ливн. осадки} 9/8 600 м
[Cb cap Ci fib]
+28.6 +16.6 48 +32 +33 душно 1006.0 992.8
15 19.07 С 3 20 км 10/8 600 м
[Cb cap Ci fib]
+28.1 +17.7 53 +32 +32 душно 1006.1 992.9 +30.2 0.0
18 19.07 С 7
{11}
20 км 8/8 1000 м
[Sc Ac trans]
+25.1 +16.7 60 +29 +29 душно 1007.3 994.0
21 19.07 С 6
{13}
20 км 8/6 1000 м
[Sc Ac trans]
+23.4 +16.7 66 +28 +28 душно 1007.2 993.8
00 20.07 С 6
{11}
20 км 3/0
[Ac trans]
+22.4 +14.2 60 +26 +26 жарко 1007.2 993.7
03 20.07 С 7-11
{12}
20 км 3/3 1000 м
[Sc]
+23.5 +17.9 71 +28 +28 душно 1008.1 994.7 +21.9
06 20.07 С 8-13
{13}
20 км 8/0
[Ci fib]
+27.5 +18.4 58 +32 +34 очень
душно
1008.2 994.9
09 20.07 СЗ 9-13
{15}
20 км 9/0
[Ci fib]
+29.5 +17.7 49 +34 +35 очень
душно
1008.6 995.4
12 20.07 С 7
{14}
20 км 9/0
[Ci fib]
+30.0 +11.0 31 +30 +32 жарко 1009.1 995.9
15 20.07 СЗ 7-10
{14}
20 км 9/0
[Ac trans Ci fib]
+28.3 +9.5 31 +28 +28 жарко 1009.8 996.5 +30.6
18 20.07 З 3
{11}
20 км 3/0
[Ac trans]
+21.1 +13.6 62 +24 +24 комфорт 1011.2 997.6
21 20.07 З 3 20 км ясно +18.5 +13.1 71 +19 +19 по сезону 1011.2 997.5
00 21.07 СЗ 3 20 км ясно +19.9 +14.3 70 +22 +22 комфорт 1012.0 998.4
03 21.07 СЗ 4 20 км ясно +21.7 +13.2 58 +24 +26 комфорт 1013.4 999.8 +18.3
06 21.07 СЗ 7-10
{11}
20 км 1/1 1000 м
[Cu hum]
+26.6 +9.3 34 +27 +30 жарко 1013.8 1000.4
09 21.07 СЗ 6
{12}
20 км 8/8 1000 м
[Cu med, cong]
+28.4 +8.7 29 +28 +29 жарко 1013.8 1000.5
12 21.07 З 7-11
{14}
20 км 6/6 1000 м
[Cu hum]
+29.3 +6.7 24 +28 +29 жарко 1013.2 999.9
15 21.07 З 4
{11}
20 км 3/3 1000 м
[Cu hum]
+27.6 +8.7 30 +27 +28 жарко 1013.0 999.7 +29.5

 

Местоположение метеостанции Оренбург (Оренбургская область, Россия): широта 51.68 долгота 55.10 высота над уровнем моря 117 м.

В архиве по умолчанию представлена погода в Оренбурге за последнюю неделю. Архивные данные за месяц целиком и за предыдущие месяцы, начиная с января 2011 года, Вы можете получить, выбрав интересующий диапазон дат из раскрывающегося списка и нажав кнопку "Ввод!".


*Определитесь, кто Вы:
робот инопланетянин человек

Внимание! Время в таблицах - всемирное. Для получения местного времени необходимо прибавить поправку, которая равна 5 ч.

Смотрите также архив погоды в соседних городах и на ближайших метеорологических станциях:

Погода в Татарской Каргале (Оренбургская область, Россия) (25 км)
Погода в Соль-Илецк (Оренбургская область, Россия) (59 км)
Погода в Акбулаке (Оренбургская область, Россия) (82 км)
Погода в Новокуйбышевске (Самарская область, Россия) (82 км)
Погода в Беляевке (Оренбургская область, Россия) (96 км)
Погода в Чингирлау (Западно-Казахстанская область, Казахстан) (96 км)
Погода в Новосергиевке (Оренбургская область, Россия) (110 км)
Погода в Троицком Т (Оренбургская область, Россия) (113 км)
Погода в Илеке (Оренбургская область, Россия) (121 км)
Погода в Кумертау (Башкирия, Россия) (129 км)

Пояснения к столбцам:

Ветер - указаны скорость ветра в м/с - средняя за 10 мин, порывы в срок и между сроками (в фигурных скобках) и направление, откуда дует ветер: С - северный, СВ - северо-восточный, В - восточный, ЮВ - юго-восточный, Ю - южный, ЮЗ - юго-западный, З - западный, СЗ - северо-западный.
Видимость - горизонтальная дальность видимости в метрах или километрах. При видимости от 1 до 10 км при отсутствии осадков обычно наблюдается дымка, при ухудшении видимости до 1 км и менее - туман. В сухую погоду видимость может ухудшаться дымом, пылью или мглою.
Явления - указаны атмосферные явления, наблюдавшиеся в срок или в последний час перед сроком; фигурными скобками обозначены явления, наблюдавшиеся между сроками (за 1-3 часа до срока); квадратными скобками обозначены град или гололедные отложения с указанием их диаметра в мм.
Облачность - указаны через наклонную черту общая и нижняя облачность в баллах и высота нижней границы облаков в метрах; квадратными скобками обозначены формы облаков: Ci - перистые, Cs - перисто-слоистые, Cc - перисто-кучевые, Ac - высококучевые, As - высокослоистые, Sc - слоисто-кучевые, Ns - слоисто-дождевые, Cu - кучевые, Cb - кучево-дождевые. Подробнее классификацию облаков см. в Атласе облаков (PDF).
T - Температура воздуха - температура, измеренная на высоте 2 м над землей.
Td - Температура точки росы - температура, при понижении до которой содержащийся в воздухе водяной пар достигнет насыщения.
f - Относительная влажность воздуха - влажноcть воздуха, измеренная на высоте 2 м над землей.
Te - Эффективная температура - температура, которую ощущает одетый по сезону человек в тени. Характеристика душности погоды. При расчете учитывается влияние влажности воздуха и скорости ветра на теплоощущения человека.
Tes - Эффективная температура на солнце - температура, которую ощущает человек, с поправкой на солнечный нагрев. Характеристика знойности погоды. Зависит от высоты солнца над горизонтом, облачности и скорости ветра. Ночью, в пасмурную погоду, а также при ветре 12 м/с и более поправка равна нулю.
P - Атмосферное давление - приведенное к уровню моря атмосферное давление.
Po - Атмосферное давление - измеренное на уровне метеостанции атмосферное давление.
Tmin - Минимальная температура - минимум температуры воздуха на высоте 2 м над землей.
Tmax - Максимальная температура - максимум температуры воздуха на высоте 2 м над землей.
R - Количество осадков - Количество выпавших осадков за период времени, мм. При наведении курсора мыши на число - период времени, за который выпало указанное количество осадков.
R24 - Количество осадков - Количество выпавших осадков за 24 часа, мм.
S - Снежный покров - Высота снежного покрова, см. При наведении курсора мыши на число - состояние снежного покрова и степень покрытия местности в баллах.